Lid_Strength_Index
0 0 2 4 8 8 8 7 5 6 6 5 6 6 6 5 6 8 1 0 -0 -0 -1 -1 -1 -1 -1 -1 -1 -1 -1 -1 -1 -1 -1 -1 -1 -1 -1 -1 -1 -1 -1 -1 -1 -1 -1 -1 -1
2 3 4 6 9 10 9 6 6 5 4 4 5 6 6 6 3 3 2 0 -0 -0 -1 -1 -1 -1 -1 -1 -1 -1 -1 -1 -1 -1 -1 -1 -1 -1 -1 -1 -1 -1 -1 -1 -1 -1 -1 -1 -1
1 2 5 8 9 10 9 6 5 5 5 5 5 5 6 5 3 2 0 -0 -0 -0 -0 -1 -1 -1 -1 -1 -1 -1 -1 -1 -1 -1 -1 -1 -1 -1 -1 -1 -1 -1 -1 -1 -1 -1 -1 -1 -1
2 3 4 8 9 8 8 6 7 7 6 5 5 6 3 2 2 1 -0 -0 0 -0 -0 0 -1 -0 -1 -1 -1 -1 -1 -1 -1 -1 -1 -1 -1 -1 -1 -1 -1 -1 -1 -1 -1 -1 -1 -1 -1
3 4 7 8 8 6 6 6 7 7 7 7 6 6 5 3 1 0 0 0 0 0 -0 -1 -1 -1 -1 -1 -1 -1 -1 -1 -1 -1 -1 -1 -1 -1 -1 -1 -1 -1 -1 -1 -1 -1 -1 -1 -1
5 5 8 9 8 6 5 5 5 5 5 5 7 7 6 3 2 0 0 0 -0 0 -0 -0 -1 -1 -1 -1 -1 -1 -1 -1 -1 -1 -1 -1 -1 -1 -1 -1 -1 -1 -1 -1 -1 -1 -1 -1 -1
6 7 9 8 8 7 5 5 5 5 5 5 4 7 5 4 3 0 0 0 -0 -0 -0 -0 -1 -1 -1 -1 -1 -1 -1 -1 -1 -1 -1 -1 -1 -1 -1 -1 -1 -1 -1 -1 -1 -1 -1 -1 -1
5 6 8 7 8 8 5 5 5 5 5 3 4 6 5 3 3 2 0 0 0 0 0 0 -0 -1 -1 -1 -1 -1 -1 -1 -1 -1 -1 -1 -1 -1 -1 -1 -1 -1 -1 -1 -1 -1 -1 -1 -1
5 8 9 8 8 7 5 6 5 5 6 5 4 4 3 2 3 2 1 1 1 1 1 0 0 -1 -1 -1 -1 -1 -1 -1 -1 -1 -1 -1 -1 -1 -1 -2 -1 -1 -1 -1 -1 -1 -1 -1 -1
7 9 8 7 6 7 6 6 6 6 7 6 5 4 3 3 3 3 2 2 2 2 1 0 0 0 -1 -1 -1 -1 -1 -1 -1 -1 -1 -1 -2 -2 -1 -1 -1 -1 -1 -1 -1 -1 -1 -1 -1
7 9 7 7 7 6 7 7 6 7 8 6 6 5 4 4 4 3 3 2 1 1 1 0 -0 0 -0 -0 -0 -1 -1 -1 -1 -2 -2 -2 -2 -2 -1 -1 -1 -1 -1 -1 -1 -1 -1 -1 -1
8 6 6 6 6 6 7 6 7 6 6 5 5 4 4 4 4 3 3 2 1 1 1 1 -0 -0 0 -0 -0 -0 -0 -1 -1 -1 -2 -1 -1 -1 -1 -1 -1 -1 -1 -1 -1 -1 -1 -1 -1
7 6 6 5 6 6 6 7 7 7 5 5 5 5 5 4 4 3 3 2 1 1 0 1 0 0 -0 -0 0 -0 -0 -0 -1 -1 -1 -1 -1 -0 -1 -1 -1 -1 -1 -1 -1 -1 -1 -1 -1
5 5 6 5 5 5 6 6 6 6 5 5 5 5 5 4 3 3 3 2 1 0 0 -0 0 0 -0 -0 0 -0 -1 -1 -1 -1 -1 -1 -1 -1 -1 -1 -1 -1 -1 -1 -1 -1 -1 -0 -1
5 7 5 5 5 5 5 7 7 4 4 5 5 5 4 4 3 3 2 2 2 1 -1 -0 0 -0 0 -0 -0 -0 -0 -1 -0 -1 -2 -1 -2 -1 -1 -1 -0 -1 -2 -2 -1 -1 -1 -0 -0
6 6 8 6 5 5 5 9 5 3 4 4 4 4 4 4 4 3 2 2 1 1 -0 -0 -0 -0 0 -0 -0 -0 -0 -0 -0 -1 -1 -1 -1 -2 -1 -0 -0 -1 -1 -1 -0 -0 0 -0 -0
7 9 8 7 5 5 6 8 5 4 4 4 4 3 3 3 3 2 2 2 2 1 -1 -0 -0 0 0 -0 -0 -0 -0 -0 -0 -1 -1 -1 -1 -1 -1 -1 -1 -1 -1 -0 -0 -0 -0 0 0
9 9 8 8 6 6 7 7 5 4 4 4 4 4 3 3 2 2 2 1 1 0 -1 -0 -0 0 0 0 -0 -0 -0 0 -0 -0 -1 -1 -1 -1 -1 -1 -1 -1 -0 -0 -0 -1 -0 0 1
7 8 9 7 6 7 7 7 6 5 4 5 4 4 4 3 2 1 1 1 1 -0 -1 -1 0 0 0 1 1 1 1 1 0 -0 -1 -1 -1 -1 -1 -0 -0 -0 -0 -1 -0 0 0 1 -0
7 8 9 7 6 7 7 8 6 5 5 4 4 4 4 3 2 2 1 1 1 0 -0 -0 -0 0 0 1 1 1 1 1 0 -0 -0 -1 -1 -1 -1 -1 -0 -0 -0 -0 -0 -0 1 0 0
8 9 9 9 7 6 7 9 7 5 5 4 4 3 3 3 3 2 2 1 1 1 0 0 -0 0 0 0 0 1 0 1 1 1 0 -0 -1 -1 -1 -1 -0 -0 -0 1 -0 0 1 2 1
9 7 7 8 9 12 7 13 8 7 6 5 4 4 4 3 3 2 2 2 1 1 -0 -0 -0 0 0 0 1 1 2 3 2 1 0 0 -1 -0 -1 -1 -0 -1 -0 0 0 -0 0 1 1
8 6 7 8 9 10 9 11 9 7 8 6 5 4 4 3 3 3 2 1 1 0 0 -0 -0 -0 0 -0 1 1 2 1 1 1 1 0 -0 -0 -0 -1 -0 -0 -0 -0 -0 -0 -0 0 1
6 7 7 8 9 13 10 10 10 9 9 6 5 4 4 3 3 2 2 1 1 1 0 0 0 -0 -0 0 1 1 2 2 2 1 2 1 1 0 -0 -0 -0 -0 -0 -0 0 0 0 1 2
7 9 14 15 14 15 10 11 9 7 7 6 5 5 4 3 3 3 2 2 1 1 1 0 0 0 0 0 1 1 1 1 2 1 1 1 1 1 1 -0 0 0 1 1 0 0 2 3 3
8 9 14 19 16 14 10 13 10 6 5 5 4 4 3 3 3 3 2 2 2 1 1 1 0 0 0 1 1 1 1 1 1 1 1 1 1 1 0 1 2 2 2 1 2 4 4 4 5
9 12 8 14 13 15 12 9 7 6 6 5 5 5 4 4 3 3 2 2 2 1 1 1 1 0 1 1 1 1 1 1 1 1 1 1 0 1 1 2 2 3 3 4 4 5 5 4 3
8 7 13 13 20 19 13 13 13 9 8 6 6 5 4 4 3 3 2 2 1 1 1 0 0 0 0 0 1 1 1 1 1 1 1 1 1 2 3 4 3 4 5 6 5 5 3 4 4
10 11 10 11 13 18 17 13 8 8 7 6 5 5 4 4 3 3 3 2 1 1 1 0 1 1 1 0 0 1 1 1 1 1 1 1 1 3 2 3 4 5 6 4 3 3 4 5 4
7 9 10 16 15 13 15 15 7 6 6 5 5 4 4 3 3 3 3 2 2 2 1 1 1 1 1 0 0 1 1 1 2 2 1 2 3 3 2 5 4 5 5 4 4 4 5 5 5